TimeEDT,TemperatureF,Dew PointF,Humidity,Sea Level PressureIn,VisibilityMPH,Wind Direction,Wind SpeedMPH,Gust SpeedMPH,PrecipitationIn,Events,Conditions,WindDirDegrees,DateUTC
12:00 AM,89.1,73.0,59,30.09,-9999.0,WSW,6.9,-,N/A,,Clear,240,2013-07-07 04:00:00
1:00 AM,87.1,73.0,63,30.08,-9999.0,WSW,6.9,-,N/A,,Clear,240,2013-07-07 05:00:00
2:00 AM,87.1,73.9,65,30.07,-9999.0,WSW,6.9,-,N/A,,Clear,240,2013-07-07 06:00:00
3:00 AM,86.0,73.0,65,30.06,-9999.0,WSW,5.8,-,N/A,,Clear,240,2013-07-07 07:00:00
4:00 AM,84.0,73.0,69,30.06,-9999.0,SW,5.8,-,N/A,,Clear,230,2013-07-07 08:00:00
5:00 AM,78.1,72.0,81,30.06,-9999.0,SW,3.5,-,N/A,,Clear,230,2013-07-07 09:00:00
6:00 AM,78.1,72.0,81,30.06,-9999.0,Calm,Calm,-,N/A,,Clear,0,2013-07-07 10:00:00
7:00 AM,87.1,72.0,61,30.07,-9999.0,SW,6.9,-,N/A,,Clear,230,2013-07-07 11:00:00
8:00 AM,90.0,73.0,57,30.07,-9999.0,WSW,6.9,-,N/A,,Clear,250,2013-07-07 12:00:00
9:00 AM,93.9,73.0,51,30.06,-9999.0,WSW,10.4,-,N/A,,Clear,240,2013-07-07 13:00:00
10:00 AM,96.1,73.0,47,30.05,-9999.0,West,9.2,-,N/A,,Clear,260,2013-07-07 14:00:00
11:00 AM,100.0,73.0,42,30.04,-9999.0,West,5.8,-,N/A,,Clear,280,2013-07-07 15:00:00
12:00 PM,100.0,73.0,42,30.02,-9999.0,West,9.2,-,N/A,,Clear,270,2013-07-07 16:00:00
1:00 PM,102.9,72.0,37,30.01,-9999.0,West,6.9,-,N/A,,Clear,260,2013-07-07 17:00:00
2:00 PM,102.0,73.9,41,30.00,-9999.0,West,8.1,-,N/A,,Partly Cloudy,260,2013-07-07 18:00:00
3:00 PM,102.9,72.0,37,29.98,-9999.0,West,12.7,-,N/A,,Clear,260,2013-07-07 19:00:00
4:00 PM,102.0,72.0,38,29.96,-9999.0,WSW,10.4,19.6,N/A,,Scattered Clouds,250,2013-07-07 20:00:00
5:00 PM,100.0,72.0,40,29.95,-9999.0,WSW,10.4,17.3,N/A,,Scattered Clouds,240,2013-07-07 21:00:00
6:00 PM,100.9,72.0,39,29.95,-9999.0,WSW,11.5,-,N/A,,Clear,250,2013-07-07 22:00:00
7:00 PM,99.0,72.0,42,29.96,-9999.0,WSW,11.5,-,N/A,,Clear,240,2013-07-07 23:00:00
8:00 PM,95.0,72.0,47,29.98,-9999.0,WSW,6.9,-,N/A,,Clear,240,2013-07-08 00:00:00
9:00 PM,93.0,73.0,52,29.99,-9999.0,SW,5.8,-,N/A,,Clear,230,2013-07-08 01:00:00
10:00 PM,88.0,69.1,53,30.00,-9999.0,WSW,6.9,-,N/A,,Clear,240,2013-07-08 02:00:00
11:00 PM,84.0,69.1,61,30.00,-9999.0,West,5.8,-,N/A,,Clear,270,2013-07-08 03:00:00